Muncie, IN

12:16 AM EDT on October 01, 2016 (GMT -0400)
Delaware County-Johnson

Weather History for KMIE - September, 2013

Change the Weather History Date:

Thursday, September 12, 2013

  Actual Average Record
Temperature  
Mean Temperature 70 °F 67 °F  
Max Temperature 82 °F 79 °F 89 °F (1999)
Min Temperature 58 °F 56 °F 36 °F (1993)
Degree Days  
Heating Degree Days 0 2  
Month to date heating degree days 3 15  
Since 1 July heating degree days 29 25  
Cooling Degree Days 5 4  
Month to date cooling degree days 101 61  
Year to date cooling degree days 916 895  
Growing Degree Days 24 (Base 50)    
Moisture  
Dew Point 64 °F    
Average Humidity 68    
Maximum Humidity 97    
Minimum Humidity 39    
Precipitation  
Precipitation 0.95 in 0.11 in 0.95 in (2013)
Month to date precipitation 0.95 1.26  
Year to date precipitation 25.83 29.17  
Sea Level Pressure  
Sea Level Pressure 29.97 in    
Wind  
Wind Speed 8 mph (WNW)    
Max Wind Speed 17 mph    
Max Gust Speed 24 mph    
Visibility 8 miles    
Events Rain , Thunderstorm    
T = Trace of Precipitation, MM = Missing Value Source: NWS Daily Summary

Daily Weather History Graph

Daily Weather History Graph

Search for Another Location

Airport or City:

Trip Planner

Search our weather history database for the weather conditions in past years. The results will help you decide how hot, cold, wet, or windy it might be!

Date:

Astronomy

Sep. 12, 2013 Rise Set
Actual Time 7:19 AM EDT 7:54 PM EDT
Civil Twilight 6:52 AM EDT 8:22 PM EDT
Nautical Twilight 6:20 AM EDT 8:54 PM EDT
Astronomical Twilight 5:46 AM EDT 9:27 PM EDT
Moon 2:47 PM EDT (9/12) No Moon Set
Length of Visible Light 13h 29m
Length of Day
12h 35m
Waxing Crescent, 50% of the Moon is Illuminated
Sep 12
Waxing Crescent
Sep 12
First Quarter
Sep 19
Full
Sep 26
Last Quarter
Oct 4
New

Hourly Weather History & Observations

Time (EDT) Temp. Heat Index Dew Point Humidity Pressure Visibility Wind Dir Wind Speed Gust Speed Precip Events Conditions
12:53 AM 75.0 °F - 62.1 °F 64% 29.98 in 10.0 mi WSW 5.8 mph - N/A   Clear
1:53 AM 75.0 °F - 62.1 °F 64% 29.97 in 10.0 mi West 6.9 mph - N/A   Clear
2:53 AM 73.9 °F - 62.1 °F 66% 29.97 in 10.0 mi West 6.9 mph - N/A   Clear
3:53 AM 73.9 °F - 64.0 °F 71% 29.97 in 10.0 mi NW 8.1 mph - N/A   Mostly Cloudy
4:53 AM 72.0 °F - 64.0 °F 76% 29.96 in 10.0 mi NW 5.8 mph - N/A   Overcast
5:46 AM 71.6 °F - 66.2 °F 83% 30.01 in 10.0 mi Variable 5.8 mph - N/A Thunderstorm Mostly Cloudy
5:53 AM 71.1 °F - 66.0 °F 84% 29.97 in 10.0 mi NNW 9.2 mph - N/A Thunderstorm Mostly Cloudy
6:05 AM 71.6 °F - 64.4 °F 78% 30.00 in 10.0 mi NNW 11.5 mph - N/A   Mostly Cloudy
6:20 AM 69.8 °F - 64.4 °F 83% 30.00 in 4.0 mi NW 9.2 mph - 0.03 in Rain , Thunderstorm Heavy Rain
6:38 AM 68.0 °F - 66.2 °F 94% 30.00 in 1.8 mi NNW 9.2 mph - 0.24 in Rain , Thunderstorm Heavy Thunderstorms and Rain
6:50 AM 68.0 °F - 66.2 °F 94% 30.00 in 3.0 mi Variable 3.5 mph - 0.32 in Rain , Thunderstorm Rain
6:53 AM 68.0 °F - 66.9 °F 96% 29.97 in 4.0 mi West 8.1 mph - 0.35 in Rain , Thunderstorm Light Rain
6:58 AM 69.8 °F - 66.2 °F 88% 30.01 in 1.8 mi WSW 6.9 mph - 0.16 in Rain , Thunderstorm Heavy Rain
7:18 AM 69.8 °F - 66.2 °F 88% 30.01 in 3.0 mi WSW 6.9 mph - 0.37 in Rain , Thunderstorm Light Thunderstorms and Rain
7:27 AM 69.8 °F - 66.2 °F 88% 30.00 in 2.0 mi West 5.8 mph - 0.48 in Rain , Thunderstorm Heavy Thunderstorms and Rain
7:30 AM 69.8 °F - 66.2 °F 88% 30.01 in 1.5 mi West 6.9 mph - 0.51 in Rain Heavy Rain
7:38 AM 69.8 °F - 66.2 °F 88% 30.00 in 2.0 mi West 5.8 mph - 0.57 in Rain Rain
7:53 AM 69.1 °F - 66.9 °F 93% 29.97 in 6.0 mi West 4.6 mph - 0.58 in Rain Rain
8:53 AM 69.1 °F - 66.9 °F 93% 29.96 in 10.0 mi SW 3.5 mph - 0.02 in   Overcast
9:53 AM 70.0 °F - 68.0 °F 93% 29.98 in 10.0 mi West 6.9 mph - 0.00 in   Overcast
10:05 AM 69.8 °F - 68.0 °F 94% 30.01 in 10.0 mi West 6.9 mph - N/A   Overcast
10:53 AM 71.1 °F - 68.0 °F 90% 29.98 in 10.0 mi WSW 8.1 mph - N/A   Mostly Cloudy
11:17 AM 71.6 °F - 68.0 °F 88% 30.01 in 10.0 mi WSW 5.8 mph - N/A   Overcast
11:25 AM 71.6 °F - 68.0 °F 88% 30.01 in 10.0 mi WSW 8.1 mph - N/A   Overcast
11:32 AM 71.6 °F - 68.0 °F 88% 30.02 in 10.0 mi West 9.2 mph - N/A   Overcast
11:53 AM 71.1 °F - 68.0 °F 90% 29.99 in 10.0 mi WSW 8.1 mph - N/A   Overcast
12:20 PM 71.6 °F - 68.0 °F 88% 29.99 in 10.0 mi West 8.1 mph - N/A   Overcast
12:29 PM 71.6 °F - 68.0 °F 88% 29.99 in 10.0 mi WNW 5.8 mph - N/A   Overcast
12:43 PM 73.4 °F - 68.0 °F 83% 30.00 in 10.0 mi West 6.9 mph - N/A   Mostly Cloudy
12:53 PM 72.0 °F - 68.0 °F 87% 29.97 in 10.0 mi WNW 9.2 mph - N/A   Overcast
1:01 PM 71.6 °F - 68.0 °F 88% 29.99 in 10.0 mi West 6.9 mph - N/A   Overcast
1:53 PM 73.9 °F - 66.9 °F 79% 29.95 in 10.0 mi WNW 10.4 mph - N/A   Mostly Cloudy
2:00 PM 75.2 °F - 66.2 °F 73% 29.98 in 10.0 mi WNW 8.1 mph - N/A   Scattered Clouds
2:53 PM 77.0 °F - 64.0 °F 64% 29.93 in 10.0 mi WNW 9.2 mph - N/A   Partly Cloudy
3:53 PM 80.1 °F 80.9 °F 60.1 °F 50% 29.90 in 10.0 mi West 9.2 mph - N/A   Partly Cloudy
4:53 PM 81.0 °F 80.7 °F 55.0 °F 41% 29.88 in 10.0 mi WNW 11.5 mph - N/A   Clear
5:53 PM 81.0 °F 80.5 °F 54.0 °F 39% 29.85 in 10.0 mi WNW 10.4 mph - N/A   Clear
6:53 PM 77.0 °F - 55.0 °F 47% 29.86 in 10.0 mi West 9.2 mph - N/A   Clear
7:53 PM 75.9 °F - 57.0 °F 52% 29.87 in 10.0 mi NW 12.7 mph 24.2 mph 0.00 in   Mostly Cloudy
8:53 PM 70.0 °F - 55.9 °F 61% 29.91 in 10.0 mi NNW 8.1 mph - N/A   Clear
9:53 PM 68.0 °F - 57.0 °F 68% 29.93 in 10.0 mi NNW 9.2 mph - N/A   Clear
10:53 PM 66.9 °F - 54.0 °F 63% 29.95 in 10.0 mi North 10.4 mph 24.2 mph N/A   Mostly Cloudy
11:53 PM 62.1 °F - 54.0 °F 75% 29.97 in 10.0 mi North 5.8 mph - N/A   Clear